Terminal Aerodrome Forecast
Issued by NWS Greer, SC

Home | Current Version | Previous Version | Text Only | Print | Product List | Glossary On
Versions: 1 2 3 4 5 6 7 8 9 10 11 12 13 14 15 16 17 18 19 20 21 22 23 24 25 26 27 28 29 30 31 32 33 34 35 36 37 38 39 40 41 42 43 44 45 46 47 48
000
FTUS42 KGSP 221100
TAFCLT
TAF
KCLT 221129Z 2212/2312 31003KT P6SM FEW060 SCT120 BKN250
     FM221500 33005KT P6SM SCT050 BKN250
     FM221800 32006KT P6SM SCT060
     FM222300 26004KT P6SM SCT050 PROB30 2223/2305 4SM TSRA BKN040CB
     FM230500 34005KT P6SM BKN050=

USA.gov is the U.S. government's official web portal to all federal, state and local government web resources and services.